Miscellaneous Local Product
Issued by NWS Hastings, NE

Home | Current Version | Previous Version | Text Only | Print | Product List | Glossary Off
Versions: 1 2 3 4 5 6 7 8 9 10 11 12 13 14 15 16 17 18 19 20 21 22 23 24 25 26 27 28 29 30 31 32 33 34 35 36 37 38 39 40 41 42 43 44 45 46 47 48 49 50

000
AXUS43 KGID 071102
MISGRI

GID CWA HOURLY WEATHER ROUNDUP
NATIONAL WEATHER SERVICE HASTINGS NE
600 AM CDT TUE JUL 07 2015

NOTE: "FAIR" INDICATES FEW OR NO CLOUDS BELOW 12,000 FEET WITH NO
SIGNIFICANT WEATHER AND/OR OBSTRUCTIONS TO VISIBILITY.

...SOUTH CENTRAL NEBRASKA...

CITY           SKY/WX    TMP DP  RH WIND       PRES   REMARKS
GRAND ISLAND   CLEAR     53  52  96 N6        30.17R FOG
HASTINGS       CLEAR     55  53  93 N7        30.15S FOG
KEARNEY        CLEAR     54  48  82 N7        30.16S
ORD            CLEAR     50  49  96 NW5       30.16S FOG
YORK           MOCLDY    54  54 100 NE5       30.15S
AURORA           N/A     55  55 100 N6        30.16R FOG
LEXINGTON      CLEAR     52  50  94 CALM      30.18S FOG
HOLDREGE       CLEAR     53  50  92 N3        30.16S FOG
HEBRON         PTCLDY    58  53  83 N8        30.12S HAZE

...NEBRASKA PANHANDLE...

CITY           SKY/WX    TMP DP  RH WIND       PRES   REMARKS
CHADRON        PTCLDY    58  55  90 CALM      30.17F
ALLIANCE       PTCLDY    51  50  96 SE6       30.20F FOG
SCOTTSBLUFF    CLOUDY    61  55  81 SE7       30.20F HAZE
SIDNEY         CLOUDY    57  53  86 S7        30.23F

...WESTERN AND NORTH CENTRAL NEBRASKA...

CITY           SKY/WX    TMP DP  RH WIND       PRES   REMARKS
VALENTINE      CLEAR     52  51  97 CALM      30.19S
AINSWORTH      CLEAR     54  54  98 CALM      30.20S FOG
ONEILL         CLEAR     54  53  97 CALM      30.18S FOG
BROKEN BOW     CLEAR     52  49  89 N7        30.17F FOG
IMPERIAL       CLEAR     55  51  86 SE3       30.20S
NORTH PLATTE   CLEAR     51  49  92 CALM      30.19F
MCCOOK         CLEAR     54  52  93 CALM      30.18S FOG

...EASTERN NEBRASKA...

CITY           SKY/WX    TMP DP  RH WIND       PRES   REMARKS
NORFOLK        CLEAR     53  52  96 CALM      30.16R FOG
SO SIOUX CITY  CLEAR     54  48  80 N7        30.16R
TEKAMAH        CLEAR     53  50  89 N8        30.13R
ALBION           N/A     51  49  92 CALM      30.16S FOG
OMAHA EPPLEY   PTCLDY    54  51  90 N6        30.12R
OFFUTT AFB     PTCLDY    58  49  71 NE9       30.11R
MILLARD        PTCLDY    58  51  76 CALM      30.12R
LINCOLN        PTCLDY    54  51  90 N8        30.13R
NEBRASKA CITY  PTCLDY    57  48  70 N12       30.10R
BEATRICE       PTCLDY    58  52  79 N10       30.11R
FALLS CITY     CLEAR     60  55  83 N8        30.07R

...NORTHERN KANSAS...

CITY           SKY/WX    TMP DP  RH WIND       PRES   REMARKS
GOODLAND       CLEAR     53  50  89 NE3       30.20S
HILL CITY      CLEAR     57  53  86 N9        30.15R FOG
NORTON         SUNNY     54  48  82 N6        30.16R
PHILLIPSBURG   CLEAR     61  55  82 N7        30.15R HAZE
SMITH CENTER   CLEAR     57  54  88 N10       30.14R FOG
HAYS           PTCLDY    61  52  72 N10       30.13R
RUSSELL        MOCLDY    60  57  89 N9        30.10R FOG
CONCORDIA      MOCLDY    60  55  83 NE9       30.11R HAZE
SALINA         MOCLDY    67  58  72 N14       30.07R HAZE
TOPEKA         CLOUDY    65  63  93 N8        30.01S FOG



USA.gov is the U.S. government's official web portal to all federal, state and local government web resources and services.